GFSSW_500_spd_000.txt.gz
Wind_Speed
27 30 32 30 26 22 18 15 13 12 9 6 2 3 5 1 4 8 10 12 13 16 20 23 26 26 29 23 22 21 8 3 6 7 7 6 7 1 10 12 12 10 12 11 13
27 29 32 33 31 26 22 18 16 14 12 10 6 2 3 3 4 6 10 16 15 14 20 27 32 29 30 25 8 6 4 5 1 7 9 11 1 6 5 8 9 8 8 9 10
29 28 31 33 33 31 26 23 20 17 14 13 9 7 1 3 4 5 8 16 17 15 17 28 44 35 24 8 4 4 10 7 3 10 6 3 7 12 14 8 6 6 6 7 8
32 30 29 32 35 35 32 27 24 21 18 15 13 11 6 0 2 4 10 17 19 16 14 18 34 28 20 5 4 4 8 11 18 16 18 16 14 5 7 5 8 5 5 5 7
28 33 32 31 33 37 36 33 29 26 22 18 17 14 12 6 1 3 8 13 19 19 17 18 24 27 14 4 8 4 9 11 6 8 8 6 5 1 6 4 3 2 3 3 4
21 29 35 34 33 33 37 37 33 30 27 22 19 18 15 10 6 2 8 10 19 20 17 18 21 24 13 10 7 13 4 13 11 6 7 3 0 3 4 4 3 1 1 2 3
23 22 31 37 35 35 33 38 37 33 31 27 23 21 19 14 10 4 8 11 17 21 17 17 19 15 21 12 5 10 12 13 4 3 7 1 1 1 2 3 4 3 2 1 2
27 23 24 35 38 37 35 34 40 37 34 31 27 23 23 19 14 11 5 11 12 21 22 19 13 25 20 17 12 10 9 7 3 7 1 4 5 4 3 4 4 4 4 3 3
28 28 23 27 37 40 37 34 37 40 38 35 31 27 25 24 19 16 10 13 15 17 22 18 17 13 25 15 12 17 9 14 9 19 11 5 3 6 6 4 4 5 3 3 5
29 29 26 23 30 40 40 35 34 42 42 38 35 31 30 30 24 18 16 12 16 18 19 18 17 17 16 22 19 10 16 19 15 15 15 10 8 11 9 7 2 3 3 2 4
29 30 29 25 25 36 40 38 35 40 45 42 41 38 33 33 29 23 19 17 18 21 21 21 21 16 18 17 15 13 12 15 9 14 25 17 16 11 14 11 9 4 2 1 3
29 30 30 28 25 28 39 39 40 39 40 44 41 40 36 37 32 29 25 21 18 19 24 25 21 17 15 17 19 13 16 13 13 18 14 20 20 13 9 16 19 10 6 3 2
31 31 30 30 26 25 34 39 39 39 39 46 44 42 39 37 35 33 28 22 20 21 22 19 19 21 19 20 21 22 20 16 13 17 22 17 33 21 13 14 21 18 13 7 5
33 32 30 30 28 26 29 37 36 38 37 39 44 40 43 40 39 37 32 27 26 23 22 22 20 23 23 21 20 19 21 20 19 20 16 20 13 25 14 25 24 33 17 11 7
34 32 32 28 28 26 27 27 34 35 27 23 34 36 39 40 37 40 36 34 30 26 27 21 23 24 25 24 24 22 15 19 20 22 19 19 22 30 21 25 25 16 24 14 10
35 33 32 26 29 27 25 29 32 30 23 5 24 35 39 41 43 42 42 39 34 32 29 23 21 22 22 20 22 18 17 19 21 20 22 22 20 28 31 16 18 25 12 12 16
35 33 32 26 31 24 24 26 32 35 25 18 20 24 33 36 41 43 45 45 40 33 30 26 18 23 25 22 19 19 17 17 17 17 17 16 22 21 24 18 11 21 26 25 25
35 34 31 29 28 27 27 30 36 31 38 18 11 16 27 32 34 41 44 44 41 35 28 29 25 25 24 22 20 25 19 16 11 7 11 14 18 12 20 17 25 9 16 28 21
35 35 31 31 29 27 30 33 31 24 29 16 11 20 24 27 29 33 43 43 40 38 25 27 22 25 22 23 27 24 25 18 16 14 13 15 15 15 20 18 24 35 36 33 26
35 35 30 33 30 29 32 30 24 24 26 24 24 22 24 27 29 29 37 40 41 38 34 21 18 23 26 25 27 21 11 20 20 19 17 14 18 20 22 24 28 22 24 19 23
34 34 34 31 33 32 30 24 19 34 26 18 31 25 23 25 30 30 31 34 39 36 33 23 16 19 23 29 26 22 23 21 15 15 11 11 24 22 24 26 23 21 24 22 19
33 33 36 30 35 30 28 24 23 28 27 20 41 26 31 32 29 32 28 28 31 32 35 32 27 25 30 25 23 22 26 20 20 22 22 19 13 17 22 25 24 29 30 25 20
32 35 36 32 33 30 26 27 31 37 27 18 28 40 31 28 30 33 31 28 26 31 34 34 32 30 26 26 28 30 27 23 19 17 21 19 21 32 30 29 28 32 32 34 36
32 35 34 33 32 30 28 27 33 32 31 23 21 33 24 23 32 32 33 29 31 29 34 31 33 34 28 26 24 27 25 27 27 29 24 25 24 25 21 27 36 40 31 29 32
36 33 39 39 33 32 33 33 25 29 31 36 38 29 29 22 27 29 30 31 29 36 37 42 36 31 31 32 28 29 25 28 28 35 31 24 38 31 40 26 32 44 30 28 37
36 34 43 38 40 40 37 34 30 22 32 27 45 28 30 30 29 35 34 31 36 42 42 42 40 36 28 25 31 28 28 32 27 25 24 31 27 34 33 42 36 45 32 41 42
33 34 42 34 36 35 37 38 35 24 28 33 41 36 34 40 40 44 39 39 44 42 46 49 46 36 29 28 26 29 27 28 29 29 32 29 28 36 44 44 45 49 43 40 39

GFSSW_500_spd_003.txt.gz
Wind_Speed
25 27 28 28 26 22 18 16 14 11 8 6 3 3 5 3 1 6 10 7 10 16 30 32 23 19 14 21 21 24 17 11 17 15 11 9 6 9 10 11 12 10 11 12 14
26 27 30 32 31 29 24 20 18 15 11 8 7 3 3 5 2 4 9 12 13 16 29 33 33 28 22 24 24 26 17 14 14 5 10 4 3 10 9 6 9 9 8 10 10
24 28 29 32 34 34 30 26 21 19 15 12 11 7 2 3 3 3 7 11 14 14 25 38 40 28 26 27 18 15 13 17 4 2 7 2 5 7 5 3 6 6 7 8 9
16 23 30 31 32 34 35 31 26 22 20 16 13 11 7 1 2 5 5 13 15 12 18 37 30 29 30 23 4 5 14 13 16 17 15 10 6 6 3 1 4 5 7 5 6
20 18 21 31 32 33 35 35 32 27 25 20 17 14 11 7 1 3 7 8 16 15 18 38 25 22 28 17 5 11 11 12 20 20 8 9 3 2 1 2 4 5 5 4 3
24 21 20 21 33 34 34 35 35 33 30 26 21 18 16 12 8 3 7 8 16 17 19 26 28 21 25 16 11 4 11 13 14 14 13 6 2 1 1 4 6 7 5 3 3
25 24 23 21 22 35 35 35 34 36 34 31 26 21 20 15 12 7 10 12 16 19 20 24 26 21 29 17 20 9 11 15 9 5 1 6 4 2 3 2 6 9 8 5 5
26 27 25 24 23 24 37 36 34 34 38 36 32 26 24 19 18 13 8 11 12 17 24 25 21 18 29 24 15 16 16 12 5 13 18 10 10 4 4 6 5 7 9 9 7
25 26 28 26 25 24 26 39 37 34 37 40 36 32 27 25 23 19 13 17 17 18 20 21 21 18 25 26 21 19 10 10 8 7 11 16 11 5 6 7 7 2 6 8 9
28 28 28 28 27 27 26 29 41 39 37 42 40 37 33 34 30 23 20 16 19 20 20 20 20 19 20 25 15 22 20 19 17 10 11 14 10 9 4 11 12 5 3 6 6
30 31 30 30 28 28 28 26 35 43 37 38 45 42 38 36 33 29 25 21 22 23 20 21 24 19 15 16 17 8 7 8 14 17 14 19 19 14 9 11 13 9 9 1 3
32 34 34 33 30 28 29 29 30 40 41 38 43 45 43 39 37 35 31 26 23 21 24 25 24 20 22 23 20 15 18 16 12 17 21 15 17 22 27 13 2 7 10 11 4
35 35 36 36 32 30 31 31 29 31 44 37 39 45 44 42 40 38 35 29 25 25 28 22 20 25 25 30 24 22 20 15 19 17 24 13 20 24 13 20 13 12 16 16 12
37 37 36 36 34 32 34 27 27 29 34 29 32 38 47 46 44 42 38 33 31 27 28 26 25 29 25 22 22 27 19 25 13 29 22 22 24 22 16 22 15 18 7 9 9
38 37 38 35 36 33 33 25 31 30 23 24 29 32 38 41 41 43 41 38 33 30 33 27 30 31 28 28 24 26 28 29 27 18 22 22 24 29 27 29 26 11 12 16 13
39 36 37 36 35 33 29 26 28 28 12 12 22 26 37 42 42 43 42 43 38 37 34 32 30 32 25 26 29 23 29 27 33 29 30 35 30 29 31 21 21 25 19 17 11
36 36 34 37 36 31 31 30 29 28 21 17 11 14 24 32 38 43 47 48 47 44 39 34 33 28 26 26 29 29 26 24 25 28 31 15 27 28 31 27 24 20 20 17 16
34 34 33 35 35 31 31 33 33 15 29 26 18 9 14 19 30 35 43 47 47 45 39 37 36 30 19 23 23 25 28 28 31 25 6 9 17 23 26 26 29 27 23 25 32
35 34 31 37 36 33 32 36 29 12 35 31 23 11 26 22 24 29 39 42 42 44 43 36 32 25 23 29 29 18 27 28 19 10 16 18 20 16 23 21 20 20 18 20 22
33 33 34 38 38 36 35 32 25 16 42 33 32 22 17 28 25 24 30 38 38 42 40 32 16 25 20 22 24 23 28 28 30 28 24 16 18 23 21 20 22 22 23 23 23
33 31 37 36 38 38 34 29 22 23 46 35 37 27 25 23 25 27 26 28 32 37 38 32 27 25 27 36 32 29 34 25 26 31 20 16 24 23 24 25 23 27 25 20 21
32 30 37 35 38 40 32 27 24 31 47 41 31 28 30 25 34 29 28 25 25 29 40 36 30 27 30 25 22 24 37 25 23 25 23 23 24 24 22 19 26 30 29 25 20
33 31 34 33 35 39 34 29 29 33 44 34 28 36 34 33 33 33 38 29 26 22 35 39 37 33 33 31 30 28 24 22 28 26 30 29 27 25 25 27 26 23 30 26 28
34 32 35 37 36 40 37 32 33 33 45 41 22 22 42 37 33 33 33 34 32 28 20 45 40 36 36 25 38 29 24 28 35 32 27 25 24 28 32 32 37 39 26 29 31
35 35 39 40 39 46 42 34 34 36 39 44 28 37 37 38 36 38 31 35 33 32 29 45 38 38 36 38 32 31 33 33 35 33 28 25 25 37 38 38 44 30 33 32 28
37 33 40 39 36 40 46 39 36 36 41 48 35 31 37 44 27 33 40 36 40 33 35 28 38 35 40 39 39 30 19 23 24 25 31 25 40 42 40 33 38 39 32 30 25
40 37 39 38 37 33 42 44 36 34 41 45 45 31 32 32 37 43 41 36 38 46 39 42 41 46 45 46 46 39 36 27 24 27 31 32 23 34 41 43 49 46 40 37 37

GFSSW_500_spd_006.txt.gz
Wind_Speed
24 25 27 27 25 23 20 15 14 11 10 7 3 1 4 1 1 5 11 14 19 21 26 27 27 15 19 23 22 14 14 18 16 13 15 15 13 9 8 7 8 10 10 13 9
19 25 27 29 30 28 26 22 18 16 12 10 7 4 3 1 2 1 8 12 13 24 27 30 27 16 16 12 17 12 8 14 14 8 20 16 6 5 6 8 8 8 9 10 13
13 15 25 30 32 33 31 29 24 20 17 14 10 9 3 1 2 4 7 14 14 24 30 33 22 24 22 11 8 14 11 8 8 9 15 18 7 8 7 4 6 6 7 8 9
16 15 14 23 30 34 36 34 30 25 22 19 14 12 8 3 3 5 7 14 14 21 28 32 26 27 19 9 7 6 7 9 11 18 17 11 16 9 5 7 8 6 6 8 9
20 20 18 17 20 31 35 37 35 29 27 24 19 15 13 10 3 4 6 10 15 25 30 36 28 29 26 14 8 8 4 7 14 20 16 11 13 9 8 8 7 5 6 7 7
21 21 21 21 19 19 32 35 37 34 31 29 24 19 19 14 11 6 7 12 18 32 34 37 28 30 26 18 16 6 9 9 13 6 7 8 2 8 8 8 6 3 6 7 7
23 23 22 23 23 22 19 32 35 37 34 34 30 25 23 18 15 10 9 13 22 26 37 37 27 30 28 21 13 20 11 12 10 7 14 8 4 5 7 8 6 4 5 8 10
23 25 26 25 24 25 24 20 34 36 37 37 35 32 27 23 19 17 13 10 19 25 31 37 35 30 30 28 22 19 22 8 12 11 10 5 7 2 1 5 7 2 4 7 9
22 22 23 27 28 27 27 26 24 36 38 38 39 38 33 28 28 24 19 18 17 27 27 32 32 31 27 27 28 26 22 13 7 1 5 2 9 8 7 4 4 2 3 6 6
22 23 24 25 26 31 30 29 30 25 39 37 36 41 39 35 35 30 24 26 22 28 31 29 29 27 25 27 28 29 19 14 2 9 9 6 7 8 9 14 14 6 6 1 3
26 25 26 28 27 29 35 33 34 29 21 37 39 42 44 41 38 34 30 28 30 29 28 29 30 25 19 18 21 22 15 4 8 12 12 11 11 9 9 16 9 7 6 3 2
27 28 28 29 30 30 33 36 35 34 24 27 39 39 47 45 44 41 38 35 33 27 28 30 31 23 19 23 29 26 21 13 5 12 20 19 14 10 10 9 3 2 4 3 3
31 29 30 30 31 33 33 33 37 37 30 25 36 41 42 48 45 45 42 36 31 31 26 26 23 29 27 32 31 26 23 21 5 16 23 22 21 17 13 7 4 9 10 12 7
34 34 32 33 31 35 35 32 37 38 31 20 27 31 41 44 49 47 46 41 38 33 29 29 32 37 34 30 32 31 21 11 14 24 30 21 22 25 19 13 7 10 20 20 6
36 34 34 31 32 35 34 33 36 36 26 20 23 36 35 40 42 44 47 47 41 35 36 29 36 35 37 31 36 29 22 15 20 22 22 25 27 19 21 18 11 16 11 11 15
38 38 34 32 30 33 35 33 35 34 20 19 18 19 29 30 42 45 48 51 43 42 41 35 36 37 34 34 40 34 26 27 24 25 28 26 23 26 27 27 19 20 17 14 12
39 43 35 32 32 31 33 35 34 32 17 17 15 10 4 19 31 43 46 53 53 50 47 42 43 40 36 40 42 42 32 34 38 36 34 25 29 27 30 31 23 23 18 16 15
39 41 36 32 36 30 34 36 36 25 15 21 23 26 23 6 11 28 40 49 53 50 48 45 46 44 41 42 37 38 35 35 39 48 45 34 39 15 14 17 19 26 19 15 13
40 41 36 39 36 31 34 38 31 20 23 30 28 27 24 15 9 11 32 42 49 53 52 48 46 42 42 40 34 37 42 34 33 35 23 26 22 15 20 17 18 21 19 15 15
40 40 39 38 33 36 34 33 28 20 32 38 36 30 28 27 25 22 14 33 40 49 48 44 43 40 34 32 29 30 24 30 36 31 30 29 23 23 15 18 16 17 17 18 23
40 37 43 37 35 37 33 30 26 23 32 48 44 38 25 29 27 31 21 14 30 41 47 41 40 40 39 38 31 27 31 28 28 28 36 26 23 21 19 22 17 17 16 22 25
40 39 38 38 36 38 35 32 30 28 31 50 50 42 33 34 34 17 31 17 18 30 42 42 41 43 44 34 30 24 32 34 35 38 32 33 26 27 23 24 17 14 18 23 28
39 38 39 39 37 36 36 36 34 31 38 51 52 47 35 36 28 18 27 41 34 24 34 34 44 42 42 39 30 27 32 35 33 36 34 35 34 30 28 27 25 21 25 26 25
40 38 44 41 37 39 40 40 37 33 39 46 56 42 41 37 28 27 31 41 40 28 18 13 46 45 46 39 33 34 31 28 29 36 34 34 32 35 32 26 27 30 34 29 29
40 42 40 42 37 38 41 41 40 37 41 41 55 50 38 39 34 35 32 37 36 39 36 27 44 45 44 33 31 37 38 30 31 33 31 25 28 38 34 28 29 33 29 32 32
41 41 42 40 41 39 40 41 44 41 45 42 53 63 39 46 38 32 37 42 37 30 36 39 26 47 48 39 25 31 39 39 27 28 28 34 31 32 32 28 29 35 38 42 35
46 45 44 42 43 42 41 40 43 47 45 47 54 65 54 49 45 42 44 39 41 40 38 41 35 48 48 39 33 38 46 41 39 44 34 40 32 30 33 34 37 43 45 45 44

GFSSW_500_spd_009.txt.gz
Wind_Speed
19 23 25 27 26 25 23 20 16 12 11 9 5 3 2 2 4 9 13 19 19 18 24 23 17 18 19 20 19 15 13 16 18 21 25 15 17 16 12 11 7 6 5 8 6
12 16 22 26 29 29 27 24 20 17 15 13 9 7 2 2 4 9 7 7 13 20 28 27 22 19 19 12 11 12 11 14 16 16 20 13 17 14 6 11 9 3 4 6 6
14 14 14 20 26 31 31 30 27 22 18 17 12 11 7 4 5 5 12 11 13 22 33 31 18 18 17 13 9 13 11 9 16 17 13 11 17 13 7 9 9 5 5 6 7
18 18 17 16 18 27 31 34 32 30 25 21 18 14 13 8 8 7 8 13 15 30 30 30 23 17 13 9 7 11 5 7 15 14 13 15 13 10 7 7 8 7 5 7 8
20 20 20 20 18 19 24 32 35 35 34 28 23 18 18 14 7 7 5 11 14 24 27 26 23 19 13 10 9 9 4 7 16 11 12 12 11 10 10 9 7 8 6 6 7
21 21 21 21 22 21 21 22 33 36 37 32 28 24 21 19 15 8 7 12 18 25 31 29 24 23 17 15 10 8 2 6 12 13 14 11 11 11 11 12 9 6 4 6 8
23 23 22 22 22 23 24 23 22 33 37 36 33 30 26 23 18 12 10 16 24 27 35 34 29 29 23 17 19 15 2 11 13 12 11 10 9 5 7 12 10 5 5 7 9
21 23 23 23 22 24 25 25 26 23 32 37 34 35 33 24 24 20 16 17 24 25 35 43 36 31 25 23 15 12 13 8 12 12 8 7 8 3 5 8 11 7 3 5 7
26 24 23 21 22 25 26 27 27 25 22 31 35 38 38 32 33 28 23 25 26 27 32 35 40 31 30 25 16 13 12 14 11 5 7 6 11 6 7 10 6 7 4 1 4
30 28 25 23 23 24 27 28 27 26 23 24 35 39 41 39 38 34 31 30 31 33 36 33 38 37 33 28 20 14 18 17 10 4 4 6 5 7 3 6 9 2 3 4 2
29 30 31 30 27 29 31 29 28 29 26 28 25 40 43 44 42 40 37 35 36 36 35 35 34 31 29 28 26 19 17 17 5 4 4 7 6 4 11 6 3 2 4 3 4
31 32 34 34 32 32 33 33 30 32 25 31 28 28 47 48 46 45 43 40 38 35 34 35 31 29 32 32 32 26 21 16 13 5 6 5 9 5 7 10 3 4 3 2 4
32 33 34 35 35 36 37 36 36 33 31 21 36 24 38 49 48 48 47 46 40 37 36 29 26 37 34 29 36 29 23 20 8 11 15 14 15 5 7 11 6 12 8 9 7
34 35 34 36 35 36 36 35 36 35 30 25 32 29 33 43 47 52 50 49 46 41 39 33 34 41 40 31 33 33 27 20 21 20 17 20 20 10 6 12 5 8 8 6 6
32 34 36 35 37 38 35 35 37 35 33 22 26 27 31 37 34 48 47 51 49 44 44 37 34 40 41 33 31 34 27 26 24 20 19 23 26 15 16 15 9 6 5 10 13
36 34 38 37 36 40 37 35 36 34 27 20 19 25 27 31 35 43 49 52 48 50 48 42 38 43 45 35 38 34 35 34 28 26 30 26 25 22 17 8 14 12 11 12 10
36 36 38 38 40 39 38 36 38 35 19 20 17 23 27 30 29 39 47 53 56 59 57 48 47 48 48 45 46 44 41 39 38 36 34 30 31 20 6 9 11 10 12 8 10
39 39 38 41 45 41 39 39 40 27 17 19 19 20 23 30 26 26 36 45 51 54 55 52 52 51 52 49 49 47 47 45 38 32 31 34 38 13 11 12 9 9 14 8 4
39 41 40 43 43 42 40 44 38 24 20 21 26 29 22 24 24 23 25 32 41 49 56 55 52 52 55 50 50 52 56 45 44 39 37 35 36 30 18 17 18 9 14 9 9
39 42 44 43 45 44 45 44 37 24 24 26 35 39 35 29 28 29 30 24 26 35 44 51 52 51 51 54 54 57 55 49 50 45 45 45 44 44 35 22 19 14 14 12 12
40 44 45 44 45 47 47 42 33 27 31 33 37 47 44 39 34 33 33 28 24 20 32 44 53 49 51 56 54 58 56 57 49 45 41 35 33 31 35 24 18 16 19 15 11
43 43 44 46 47 47 46 39 36 34 40 39 37 49 46 40 38 35 35 31 23 21 31 39 46 47 51 52 52 59 53 52 48 40 36 33 33 31 26 21 17 21 16 12 12
45 44 47 48 49 47 44 45 42 41 43 41 38 46 54 50 46 43 41 36 32 29 28 31 42 48 48 52 53 56 49 41 31 33 35 31 29 28 31 28 21 19 20 21 23
45 47 48 48 49 48 46 45 43 42 44 43 41 41 57 54 52 45 44 39 36 28 22 31 31 45 52 48 51 52 44 36 31 34 36 33 30 27 27 32 31 27 23 21 17
47 47 49 50 49 47 48 45 42 44 48 44 43 43 54 60 52 50 38 44 25 28 34 38 34 28 45 48 52 45 43 35 35 30 31 27 29 29 30 31 29 23 22 19 14
49 47 48 50 50 47 48 46 43 45 47 45 46 43 46 62 60 46 44 49 27 30 34 38 36 24 34 45 53 47 42 40 36 33 27 26 28 23 24 27 28 31 27 23 24
49 49 46 48 51 49 48 50 44 46 44 47 48 45 47 50 65 59 45 39 32 39 39 39 38 34 34 45 52 55 40 42 41 39 36 38 28 28 31 35 30 29 29 28 26

GFSSW_500_spd_015.txt.gz
Wind_Speed
13 13 13 14 16 19 20 19 18 17 13 10 7 7 6 7 4 5 9 10 6 13 19 16 11 7 8 12 18 17 15 16 14 14 15 15 14 15 14 16 13 12 10 12 10
16 15 15 15 15 15 17 20 21 20 19 15 12 9 9 8 7 8 1 6 8 15 20 18 14 10 15 21 21 18 13 12 11 11 14 15 13 11 11 15 13 12 12 9 10
19 19 18 17 17 17 16 15 18 22 22 21 16 13 12 12 12 7 5 7 8 15 22 20 19 18 20 19 20 14 11 11 11 11 16 15 15 10 10 13 13 10 12 7 10
22 21 20 20 19 19 18 18 16 16 22 24 22 19 14 17 16 11 7 8 11 14 24 24 24 23 18 17 17 14 10 14 14 12 15 16 16 13 10 12 13 10 7 9 9
21 24 22 20 19 20 20 18 19 17 15 21 26 24 20 20 21 11 13 10 13 13 22 26 25 25 20 21 18 12 10 13 14 15 15 16 17 14 12 10 13 10 5 9 12
22 22 21 22 21 20 20 19 19 18 18 17 20 26 23 27 21 20 14 12 14 17 26 30 27 24 23 21 20 12 11 15 15 18 16 16 18 17 14 10 10 11 7 8 12
21 22 21 22 23 24 22 17 19 19 18 19 19 20 26 31 27 27 20 16 16 19 24 33 32 30 24 20 19 16 14 16 16 18 17 17 17 18 16 11 9 9 10 8 11
21 22 24 23 24 26 26 20 15 17 18 20 19 19 22 28 30 32 26 21 20 23 27 36 34 34 29 23 22 17 18 18 18 18 16 14 16 15 14 12 9 6 7 6 7
24 25 26 27 27 26 25 22 19 20 19 20 20 19 22 23 30 33 32 28 26 27 29 32 31 33 31 28 24 19 19 19 18 18 16 14 12 11 11 9 8 7 6 4 4
25 26 27 26 26 27 28 26 25 24 25 24 22 22 22 21 30 35 37 34 32 31 31 30 34 30 26 24 21 16 16 19 17 15 15 15 12 9 8 6 3 6 6 5 2
28 27 28 28 29 30 31 29 28 26 28 27 25 22 26 22 25 33 40 39 37 36 33 30 29 20 17 16 21 17 20 19 18 17 17 15 14 12 10 9 1 2 4 5 4
30 30 31 30 29 29 31 33 31 29 25 28 29 26 27 27 24 28 38 44 43 40 37 36 27 27 29 27 25 23 23 25 23 22 18 18 16 13 10 7 6 0 0 3 4
32 32 34 34 33 32 31 31 33 34 32 26 30 28 28 27 24 31 34 42 45 44 41 39 31 35 36 31 27 25 22 30 24 25 21 18 17 13 12 10 7 3 1 2 4
38 36 37 37 36 36 34 32 32 32 33 24 30 31 31 29 25 32 33 41 46 47 46 45 38 41 39 37 29 21 19 30 30 28 22 21 17 15 12 11 9 6 5 3 6
41 41 40 38 40 39 37 37 35 32 33 30 30 30 28 31 26 29 36 36 45 49 51 49 42 45 46 39 34 25 23 24 29 31 30 28 26 21 19 17 13 8 3 1 6
44 46 42 41 42 41 40 40 38 37 37 34 30 31 31 31 31 28 34 39 43 48 53 53 50 50 47 46 41 37 32 29 32 36 41 33 31 24 17 13 16 12 8 6 7
52 49 45 43 44 44 43 43 44 43 37 36 32 35 35 35 35 30 30 38 41 52 56 57 55 56 52 55 54 47 43 40 38 42 44 32 32 15 13 13 16 17 13 12 13
54 53 52 49 47 48 48 47 48 46 38 40 37 37 39 34 37 32 31 34 41 50 55 57 60 56 63 57 55 53 48 48 44 42 36 33 33 15 13 17 19 17 18 21 15
55 57 57 53 48 47 50 51 49 45 43 45 35 37 40 38 35 34 30 33 39 45 57 60 61 62 65 61 57 58 57 46 45 43 40 40 37 29 18 22 21 16 15 15 13
61 60 61 58 53 52 55 55 50 47 44 45 41 40 41 42 37 36 32 32 37 40 52 56 58 67 66 67 64 62 55 54 54 53 53 50 44 37 22 23 23 20 20 16 15
69 67 64 61 57 56 59 57 50 47 47 50 45 42 43 44 40 37 37 33 35 40 47 53 59 61 75 75 70 68 68 64 59 57 54 53 50 36 28 21 19 22 24 20 18
67 67 65 61 58 57 56 54 53 50 52 53 51 45 45 46 45 42 39 37 36 41 43 48 51 59 65 76 78 72 70 66 64 60 59 57 51 43 33 29 22 23 25 24 20
62 60 63 63 61 60 60 59 57 54 54 54 53 49 46 48 50 47 41 39 40 40 42 44 51 54 60 65 76 79 77 71 71 66 67 62 56 49 39 34 23 22 22 23 24
62 61 60 60 62 61 60 59 58 56 58 57 57 53 49 50 52 49 46 42 39 36 36 44 50 55 57 63 63 72 77 80 78 75 73 69 60 51 41 38 26 26 26 22 28
56 56 55 53 55 55 56 57 57 59 60 59 58 54 49 50 52 53 50 43 44 37 36 43 49 48 51 53 59 63 66 70 74 73 74 66 59 46 42 43 38 33 29 29 30
52 52 51 50 52 54 55 57 61 62 62 61 57 51 49 52 54 55 52 47 42 40 41 43 46 46 46 42 50 56 61 61 66 67 71 62 58 49 44 39 33 33 25 28 30
49 55 52 49 48 51 54 58 59 60 60 59 54 51 50 52 53 52 54 48 49 47 47 48 45 46 44 36 37 50 56 58 62 63 64 63 53 48 43 29 30 27 20 23 22